| time (UTC) | temp F | wind direction | speed MPH | gust MPH | rain 1hr in | rain 24hr in | rain mn in | humidity % | barometer mb |
| 20260505193005 | 58 | 9 | 1.0 | 8.0 | 0.00 | 1.00 | 1.00 | 92 | 1007.3 |
| 20260505192001 | 58 | 53 | 2.0 | 10.0 | 0.00 | 1.00 | 1.00 | 92 | 1005.8 |
| 20260505191001 | 58 | 32 | 1.0 | 7.0 | 0.00 | 1.00 | 1.00 | 91 | 1007.0 |
| 20260505190012 | 59 | 114 | 3.0 | 10.0 | 0.00 | 1.00 | 1.00 | 91 | 1007.0 |
| 20260505190000 | 58 | 4 | 0.0 | 6.0 | 0.00 | 1.00 | 1.00 | 92 | 1006.8 |
| 20260505185105 | 59 | 114 | 3.0 | 10.0 | 0.00 | 1.00 | 1.00 | 91 | 1007.0 |
| 20260505184001 | 60 | 2 | 2.0 | 14.0 | 0.00 | 1.00 | 1.00 | 90 | 1006.3 |
| 20260505183003 | 63 | 355 | 1.0 | 9.0 | 0.00 | 1.00 | 1.00 | 90 | 1006.2 |
| 20260505182001 | 64 | 8 | 1.0 | 5.0 | 0.00 | 1.00 | 1.00 | 92 | 1006.3 |
| 20260505180957 | 65 | 342 | 0.0 | 4.0 | 0.00 | 1.00 | 1.00 | 92 | 1006.1 |
| 20260505175954 | 65 | 1 | 0.0 | 2.0 | 0.00 | 1.00 | 1.00 | 92 | 1005.9 |
| 20260505174956 | 65 | 334 | 0.0 | 4.0 | 0.00 | 1.00 | 1.00 | 92 | 1005.6 |
| 20260505173953 | 66 | 354 | 0.0 | 1.0 | 0.00 | 1.00 | 1.00 | 92 | 1006.1 |
| 20260505172955 | 67 | 19 | 0.0 | 1.0 | 0.00 | 1.00 | 1.00 | 92 | 1006.1 |
| 20260505171956 | 67 | 359 | 0.0 | 1.0 | 0.00 | 1.00 | 1.00 | 92 | 1006.0 |
| 20260505170955 | 67 | 346 | 0.0 | 1.0 | 0.00 | 1.00 | 1.00 | 91 | 1005.9 |
| 20260505170005 | 67 | 359 | 0.0 | 0.0 | 0.00 | 1.00 | 1.00 | 91 | 1006.0 |
| 20260505165954 | 67 | 301 | 0.0 | 0.0 | 0.00 | 1.00 | 1.00 | 91 | 1005.9 |
| 20260505165059 | 67 | 359 | 0.0 | 0.0 | 0.00 | 1.00 | 1.00 | 91 | 1006.0 |
| 20260505163954 | 67 | 12 | 0.0 | 1.0 | 0.00 | 1.00 | 1.00 | 90 | 1006.0 |
| 20260505163003 | 68 | 213 | 0.0 | 0.0 | 0.00 | 1.00 | 1.00 | 89 | 1005.8 |
| 20260505162953 | 68 | 150 | 0.0 | 0.0 | 0.00 | 1.00 | 1.00 | 90 | 1006.0 |
| 20260505162057 | 68 | 213 | 0.0 | 0.0 | 0.00 | 1.00 | 1.00 | 89 | 1005.8 |
| 20260505160954 | 68 | 225 | 0.0 | 1.0 | 0.00 | 1.00 | 1.00 | 90 | 1005.8 |
| 20260505152950 | 68 | 169 | 0.0 | 3.0 | 0.00 | 1.00 | 1.00 | 90 | 1005.5 |
| 20260505151952 | 68 | 117 | 0.0 | 1.0 | 0.00 | 1.00 | 1.00 | 91 | 1005.5 |
| 20260505150952 | 67 | 150 | 0.0 | 1.0 | 0.00 | 1.00 | 1.00 | 90 | 1005.6 |
| 20260505124944 | 61 | 145 | 0.0 | 5.0 | 0.00 | 1.00 | 1.00 | 95 | 1006.0 |
| 20260505123942 | 61 | 168 | 1.0 | 5.0 | 0.00 | 1.00 | 1.00 | 96 | 1006.0 |
| 20260505122943 | 61 | 174 | 1.0 | 4.0 | 0.00 | 1.00 | 1.00 | 96 | 1005.8 |
| 20260505121939 | 61 | 160 | 1.0 | 7.0 | 0.00 | 1.00 | 1.00 | 96 | 1005.8 |
| 20260505120939 | 60 | 164 | 1.0 | 7.0 | 0.00 | 1.00 | 1.00 | 96 | 1005.9 |
| 20260505115938 | 60 | 160 | 2.0 | 6.0 | 0.00 | 1.00 | 1.00 | 96 | 1005.7 |
| 20260505114949 | 60 | 163 | 1.0 | 3.0 | 0.00 | 1.00 | 1.00 | 96 | 1005.6 |
| 20260505114939 | 60 | 169 | 1.0 | 4.0 | 0.00 | 1.00 | 1.00 | 96 | 1005.7 |
| 20260505114102 | 60 | 152 | 1.0 | 6.0 | 0.00 | 1.00 | 1.00 | 96 | 1005.7 |
| 20260505114043 | 60 | 163 | 1.0 | 3.0 | 0.00 | 1.00 | 1.00 | 96 | 1005.6 |
| 20260505113043 | 60 | 152 | 1.0 | 6.0 | 0.00 | 1.00 | 1.00 | 96 | 1005.7 |
| 20260505111937 | 60 | 151 | 1.0 | 5.0 | 0.00 | 1.00 | 1.00 | 96 | 1005.7 |
| 20260505110936 | 60 | 354 | 0.0 | 1.0 | 0.00 | 1.00 | 1.00 | 96 | 1005.6 |
| 20260505102040 | 60 | 353 | 0.0 | 1.0 | 0.02 | 1.00 | 1.00 | 96 | 1006.2 |
| 20260505100936 | 60 | 353 | 0.0 | 0.0 | 0.02 | 1.00 | 1.00 | 96 | 1006.1 |
| 20260505095937 | 60 | 353 | 0.0 | 0.0 | 0.03 | 1.00 | 1.00 | 96 | 1006.4 |
| 20260505094937 | 60 | 353 | 0.0 | 0.0 | 0.04 | 1.00 | 1.00 | 96 | 1006.4 |
| 20260505093945 | 60 | 4 | 0.0 | 1.0 | 0.03 | 0.99 | 0.99 | 95 | 1006.5 |
| 20260505093935 | 60 | 353 | 0.0 | 4.0 | 0.03 | 0.99 | 0.99 | 96 | 1006.5 |
| 20260505093042 | 60 | 4 | 0.0 | 1.0 | 0.03 | 0.99 | 0.99 | 95 | 1006.5 |
| 20260505091937 | 60 | 19 | 0.0 | 1.0 | 0.04 | 0.98 | 0.98 | 95 | 1006.8 |
| 20260505090937 | 60 | 19 | 0.0 | 1.0 | 0.16 | 0.98 | 0.98 | 95 | 1006.5 |
| 20260505085937 | 60 | 19 | 0.0 | 1.0 | 0.31 | 0.97 | 0.97 | 95 | 1006.5 |
| 20260505084936 | 60 | 6 | 0.0 | 1.0 | 0.48 | 0.96 | 0.96 | 95 | 1006.8 |
| 20260505083933 | 60 | 8 | 0.0 | 0.0 | 0.76 | 0.96 | 0.96 | 95 | 1006.3 |
| 20260505082927 | 60 | 7 | 0.0 | 1.0 | 0.84 | 0.96 | 0.96 | 95 | 1006.5 |
| 20260505081935 | 61 | 356 | 0.0 | 7.0 | 0.70 | 0.82 | 0.84 | 94 | 1005.3 |
| 20260505081926 | 61 | 13 | 0.0 | 2.0 | 0.82 | 0.94 | 0.95 | 94 | 1006.7 |
| 20260505081030 | 61 | 356 | 0.0 | 7.0 | 0.70 | 0.82 | 0.84 | 94 | 1005.3 |
| 20260505075921 | 61 | 0 | 1.0 | 7.0 | 0.53 | 0.65 | 0.66 | 92 | 1006.4 |
| 20260505074919 | 62 | 16 | 5.0 | 15.0 | 0.40 | 0.48 | 0.49 | 91 | 1006.3 |
| 20260505073922 | 63 | 0 | 5.0 | 20.0 | 0.18 | 0.20 | 0.22 | 90 | 1005.9 |
| 20260505072919 | 62 | 337 | 1.0 | 14.0 | 0.10 | 0.12 | 0.12 | 92 | 1006.2 |
| 20260505071922 | 62 | 26 | 0.0 | 1.0 | 0.10 | 0.12 | 0.12 | 91 | 1004.7 |
| 20260505070917 | 62 | 90 | 0.0 | 2.0 | 0.12 | 0.12 | 0.12 | 92 | 1004.6 |
| 20260505065918 | 62 | 167 | 3.0 | 8.0 | 0.12 | 0.12 | 0.12 | 92 | 1004.8 |
| 20260505064919 | 62 | 148 | 2.0 | 6.0 | 0.08 | 0.08 | 0.08 | 92 | 1005.1 |
| 20260505063915 | 62 | 167 | 0.0 | 0.0 | 0.02 | 0.02 | 0.02 | 90 | 1006.8 |
| 20260505062916 | 62 | 167 | 0.0 | 1.0 | 0.02 | 0.02 | 0.02 | 89 | 1006.7 |
| 20260505061915 | 63 | 157 | 0.0 | 1.0 | 0.02 | 0.02 | 0.02 | 87 | 1005.3 |
| 20260505060916 | 64 | 342 | 0.0 | 0.0 | 0.00 | 0.00 | 0.00 | 83 | 1006.5 |
| 20260505055913 | 65 | 357 | 0.0 | 0.0 | 0.00 | 0.00 | 0.00 | 80 | 1006.0 |
| 20260505054913 | 66 | 162 | 0.0 | 0.0 | 0.00 | 0.00 | 0.00 | 76 | 1007.0 |
| 20260505053914 | 66 | 162 | 0.0 | 1.0 | 0.00 | 0.00 | 0.00 | 75 | 1007.0 |
| 20260505052912 | 66 | 162 | 1.0 | 6.0 | 0.00 | 0.00 | 0.00 | 75 | 1006.5 |
| 20260505051912 | 66 | 136 | 0.0 | 4.0 | 0.00 | 0.00 | 0.00 | 76 | 1006.9 |
| 20260505050912 | 66 | 165 | 1.0 | 9.0 | 0.00 | 0.00 | 0.00 | 76 | 1006.2 |
| 20260505040908 | 64 | 169 | 0.0 | 1.0 | 0.00 | 0.00 | 0.00 | 80 | 1007.1 |
| 20260505035907 | 64 | 153 | 0.0 | 2.0 | 0.00 | 0.00 | 0.00 | 79 | 1007.3 |
| 20260505034905 | 65 | 153 | 0.0 | 1.0 | 0.00 | 0.00 | 0.00 | 78 | 1007.3 |
| 20260505033906 | 66 | 153 | 0.0 | 2.0 | 0.00 | 0.00 | 0.00 | 77 | 1007.5 |
| 20260505032905 | 66 | 153 | 0.0 | 2.0 | 0.00 | 0.00 | 0.00 | 77 | 1007.6 |
| 20260505031904 | 66 | 153 | 0.0 | 2.0 | 0.00 | 0.00 | 0.00 | 77 | 1007.4 |
| 20260505030904 | 66 | 153 | 0.0 | 3.0 | 0.00 | 0.00 | 0.00 | 77 | 1007.7 |
| 20260505025918 | 67 | 197 | 0.0 | 2.0 | 0.00 | 0.00 | 0.00 | 75 | 1007.7 |
| 20260505025907 | 66 | 152 | 0.0 | 3.0 | 0.00 | 0.00 | 0.00 | 76 | 1007.7 |
| 20260505024905 | 67 | 152 | 1.0 | 5.0 | 0.00 | 0.00 | 0.00 | 76 | 1007.7 |
| 20260505024010 | 67 | 197 | 0.0 | 2.0 | 0.00 | 0.00 | 0.00 | 75 | 1007.7 |
| 20260505022903 | 67 | 197 | 0.0 | 2.0 | 0.00 | 0.00 | 0.00 | 74 | 1007.4 |
| 20260505021904 | 67 | 172 | 1.0 | 4.0 | 0.00 | 0.00 | 0.00 | 75 | 1007.5 |
| 20260505020914 | 68 | 169 | 0.0 | 3.0 | 0.00 | 0.00 | 0.00 | 73 | 1007.0 |
| 20260505020904 | 67 | 219 | 0.0 | 4.0 | 0.00 | 0.00 | 0.00 | 74 | 1007.0 |
| 20260505020028 | 68 | 168 | 0.0 | 3.0 | 0.00 | 0.00 | 0.00 | 72 | 1006.9 |
| 20260505020010 | 68 | 169 | 0.0 | 3.0 | 0.00 | 0.00 | 0.00 | 73 | 1007.0 |
| 20260505015028 | 68 | 186 | 0.0 | 3.0 | 0.00 | 0.00 | 0.00 | 71 | 1006.8 |
| 20260505015008 | 68 | 168 | 0.0 | 3.0 | 0.00 | 0.00 | 0.00 | 72 | 1006.9 |
| 20260505014005 | 68 | 186 | 0.0 | 3.0 | 0.00 | 0.00 | 0.00 | 71 | 1006.8 |
| 20260505012902 | 69 | 182 | 1.0 | 4.0 | 0.00 | 0.00 | 0.00 | 71 | 1006.9 |
| 20260505011900 | 69 | 205 | 0.0 | 2.0 | 0.00 | 0.00 | 0.00 | 70 | 1006.5 |
| 20260505010900 | 69 | 205 | 0.0 | 3.0 | 0.00 | 0.00 | 0.00 | 69 | 1006.2 |
| 20260505005857 | 70 | 193 | 0.0 | 3.0 | 0.00 | 0.00 | 0.00 | 69 | 1006.1 |
| 20260505004858 | 70 | 161 | 1.0 | 3.0 | 0.00 | 0.00 | 0.00 | 69 | 1006.1 |
| 20260505003858 | 71 | 168 | 2.0 | 4.0 | 0.00 | 0.00 | 0.00 | 68 | 1006.1 |
| 20260505002858 | 71 | 169 | 2.0 | 7.0 | 0.00 | 0.00 | 0.00 | 67 | 1006.1 |
| 20260505001858 | 72 | 167 | 2.0 | 7.0 | 0.00 | 0.00 | 0.00 | 66 | 1006.1 |
| 20260505000858 | 72 | 168 | 3.0 | 7.0 | 0.00 | 0.00 | 0.00 | 66 | 1006.2 |
| 20260504235857 | 72 | 164 | 4.0 | 8.0 | 0.00 | 0.00 | 0.00 | 65 | 1006.2 |
| 20260504234858 | 73 | 187 | 4.0 | 7.0 | 0.00 | 0.00 | 0.00 | 64 | 1006.2 |
| 20260504233856 | 73 | 162 | 4.0 | 11.0 | 0.00 | 0.00 | 0.00 | 63 | 1006.2 |
| 20260504232856 | 74 | 158 | 4.0 | 9.0 | 0.00 | 0.00 | 0.00 | 62 | 1006.3 |
| 20260504231858 | 74 | 210 | 4.0 | 8.0 | 0.00 | 0.00 | 0.00 | 63 | 1006.4 |
| 20260504230856 | 74 | 136 | 5.0 | 10.0 | 0.00 | 0.00 | 0.00 | 62 | 1006.4 |
| 20260504225858 | 74 | 157 | 5.0 | 12.0 | 0.00 | 0.00 | 0.00 | 61 | 1006.5 |
| 20260504224857 | 75 | 207 | 6.0 | 14.0 | 0.00 | 0.00 | 0.00 | 59 | 1006.3 |
| 20260504223857 | 76 | 152 | 4.0 | 9.0 | 0.00 | 0.00 | 0.00 | 60 | 1006.3 |
| 20260504222857 | 76 | 201 | 5.0 | 8.0 | 0.00 | 0.00 | 0.00 | 63 | 1006.2 |
| 20260504221857 | 76 | 153 | 5.0 | 12.0 | 0.00 | 0.00 | 0.00 | 61 | 1006.3 |
| 20260504220858 | 76 | 180 | 5.0 | 10.0 | 0.00 | 0.00 | 0.00 | 60 | 1006.3 |
| 20260504215856 | 77 | 144 | 5.0 | 11.0 | 0.00 | 0.00 | 0.00 | 57 | 1006.3 |
| 20260504214909 | 77 | 192 | 6.0 | 18.0 | 0.00 | 0.00 | 0.00 | 57 | 1006.8 |
| 20260504214858 | 77 | 125 | 5.0 | 9.0 | 0.00 | 0.00 | 0.00 | 59 | 1006.7 |
| 20260504213856 | 77 | 157 | 6.0 | 13.0 | 0.00 | 0.00 | 0.00 | 57 | 1006.5 |
| 20260504213024 | 77 | 141 | 6.0 | 15.0 | 0.00 | 0.00 | 0.00 | 58 | 1007.0 |
| 20260504213002 | 77 | 192 | 6.0 | 18.0 | 0.00 | 0.00 | 0.00 | 57 | 1006.8 |
| 20260504211858 | 77 | 202 | 6.0 | 15.0 | 0.00 | 0.00 | 0.00 | 57 | 1006.9 |
| 20260504211003 | 77 | 141 | 6.0 | 15.0 | 0.00 | 0.00 | 0.00 | 58 | 1007.0 |
| 20260504205857 | 77 | 151 | 6.0 | 17.0 | 0.00 | 0.00 | 0.00 | 59 | 1007.2 |
| 20260504204853 | 77 | 134 | 6.0 | 14.0 | 0.00 | 0.00 | 0.00 | 56 | 1007.2 |
| 20260504203853 | 77 | 193 | 7.0 | 16.0 | 0.00 | 0.00 | 0.00 | 57 | 1007.5 |
| 20260504202853 | 77 | 162 | 7.0 | 14.0 | 0.00 | 0.00 | 0.00 | 58 | 1007.7 |
| 20260504201854 | 77 | 139 | 7.0 | 17.0 | 0.00 | 0.00 | 0.00 | 57 | 1007.8 |
| 20260504200852 | 77 | 174 | 6.0 | 14.0 | 0.00 | 0.00 | 0.00 | 57 | 1008.1 |
| 20260504195853 | 77 | 161 | 7.0 | 15.0 | 0.00 | 0.00 | 0.00 | 57 | 1008.2 |
| 20260504194903 | 78 | 140 | 5.0 | 14.0 | 0.00 | 0.00 | 0.00 | 59 | 1008.3 |
| 20260504194852 | 78 | 172 | 6.0 | 12.0 | 0.00 | 0.00 | 0.00 | 61 | 1008.3 |
| 20260504193957 | 78 | 140 | 5.0 | 14.0 | 0.00 | 0.00 | 0.00 | 59 | 1008.3 |